Total_Precipitation_Accumulation
0.02 0.08 0.06 0.03 0.07 0.47 0.76 0.84 1.34 2.10 2.03 1.40 1.26 1.24 1.17 1.18 0.85 0.88 1.10 1.75 1.59 2.08 2.37 2.20 2.72 2.38 2.20 2.27 2.12 1.89 1.59 1.62
0.05 0.08 0.11 0.12 0.20 0.56 0.70 0.86 0.81 0.98 1.07 1.18 1.20 1.11 1.20 1.05 0.80 0.87 1.10 1.66 1.81 1.71 2.14 2.28 2.50 2.67 2.60 2.07 2.15 2.49 1.88 1.49
0.01 0.02 0.08 0.22 0.43 0.48 0.41 0.34 0.23 0.33 0.54 0.68 0.75 0.75 0.70 0.89 1.08 0.99 1.44 1.63 1.86 1.79 2.07 2.47 2.22 2.73 2.92 2.73 2.12 2.16 2.24 2.15
0.06 0.09 0.12 0.12 0.10 0.07 0.09 0.16 0.14 0.26 0.39 0.80 1.41 1.81 1.88 2.07 1.56 1.41 1.64 1.57 1.81 1.93 2.13 2.28 2.66 2.89 3.09 3.36 2.77 2.22 2.35 2.26
0.04 0.03 0.03 0.01 0.05 0.09 0.13 0.13 0.22 0.33 0.62 0.88 1.23 1.19 1.19 1.12 1.39 1.61 1.81 2.09 2.11 2.22 2.32 3.13 2.94 3.44 3.44 3.15 3.67 2.90 2.41 2.22
0.08 0.05 0.08 0.09 0.07 0.09 0.10 0.15 0.34 0.50 0.79 0.74 1.16 1.57 1.56 1.36 1.54 2.04 2.69 2.24 2.38 2.84 2.79 2.74 3.15 3.54 4.08 3.98 3.86 4.25 3.35 2.45
0.18 0.16 0.18 0.17 0.15 0.23 0.12 0.18 0.23 0.50 0.71 1.30 1.93 1.90 1.86 1.97 1.83 1.69 2.16 2.92 2.55 2.85 3.13 2.67 2.54 2.67 3.39 3.76 4.54 4.66 4.72 3.87
0.20 0.25 0.35 0.33 0.32 0.39 0.21 0.16 0.21 0.29 0.55 1.08 1.53 2.22 2.75 2.42 2.02 2.07 2.11 3.00 3.55 3.00 2.77 3.22 3.15 2.83 2.90 3.50 3.67 4.17 4.69 4.98
0.46 0.78 0.57 0.48 0.57 0.66 0.47 0.31 0.40 0.43 0.63 1.06 1.41 1.87 2.32 3.25 3.43 3.31 3.23 2.92 3.64 4.86 5.04 3.51 3.14 3.74 3.61 3.45 3.75 3.78 3.93 4.39
0.77 0.93 0.81 0.74 1.41 1.46 0.93 0.72 0.58 0.61 0.70 1.06 1.52 2.33 2.94 3.08 3.40 4.44 5.36 5.03 3.94 4.84 6.58 6.93 5.29 3.81 4.01 3.90 3.54 3.36 3.13 3.07
0.93 1.26 0.82 0.90 1.92 1.67 1.08 1.05 1.18 1.09 0.95 1.04 1.30 1.91 2.83 3.54 3.82 4.52 4.87 5.91 6.67 5.48 5.12 5.50 7.15 6.90 5.00 4.32 3.76 3.36 3.39 2.92
1.16 1.34 1.03 0.89 1.34 1.75 1.66 1.37 1.70 1.79 1.88 2.03 1.78 2.21 2.61 3.55 3.90 4.61 5.06 4.99 5.60 7.65 6.86 5.27 5.65 6.68 6.57 5.47 4.52 3.79 3.58 3.75
1.73 1.43 1.27 1.15 1.17 1.39 1.91 1.93 2.18 2.47 3.23 3.74 2.91 2.96 3.24 3.40 3.96 4.23 4.23 4.37 5.41 6.44 7.35 7.70 6.64 6.54 6.64 7.21 6.35 5.26 4.45 4.07
2.46 2.11 1.69 1.54 1.28 1.82 1.88 1.98 2.04 2.99 3.77 4.17 3.61 3.56 3.45 3.62 3.75 3.87 3.95 3.80 3.92 5.26 6.98 7.65 8.44 8.36 7.69 7.60 7.19 6.46 6.32 5.63
2.50 2.20 2.09 1.74 1.40 1.75 1.79 1.74 1.87 2.39 2.54 3.22 3.35 3.40 3.70 3.29 3.00 3.19 3.49 3.55 3.64 3.94 4.98 5.92 7.20 8.23 8.58 8.10 7.83 7.20 6.33 6.19
1.60 1.70 1.76 1.72 1.39 1.30 1.46 1.30 1.62 1.98 2.02 2.01 2.31 2.87 3.05 2.97 3.25 3.38 3.11 3.38 3.79 3.93 4.16 4.22 4.61 6.13 7.58 8.05 7.81 7.44 7.06 6.19
1.09 1.01 1.18 1.37 1.22 1.12 1.25 1.33 1.26 1.46 1.64 1.96 1.92 1.81 1.93 2.27 2.39 2.45 2.26 2.74 3.24 3.32 3.89 3.68 4.03 4.23 5.69 6.02 6.90 7.66 8.25 8.41
1.01 0.94 0.74 0.76 1.03 1.07 1.14 1.35 1.29 1.20 1.38 1.50 1.56 1.76 2.07 2.10 2.44 2.48 2.53 2.48 2.74 3.09 3.29 2.97 2.95 3.29 4.26 4.27 4.94 5.17 5.88 6.46
1.16 1.22 0.94 0.74 0.81 0.84 0.89 0.94 1.08 1.26 1.27 1.45 1.56 1.45 1.52 1.71 1.97 2.24 2.77 3.18 3.13 2.90 2.68 2.70 2.63 2.95 3.45 2.97 3.54 3.49 3.89 4.07